User: anonymous   Login
Location: ??
(31.9467°N, 34.8903°E)
Time: 11:01:50
(UTC+00:00)
Language:

Cosmos 2058 - Orbit

View from above orbital plane
View from above orbital plane
View from above satellite
View from above satellite

Ground track
Ground track

The orbit data is extracted from the following two-line orbital elements,

1 20465U 90010A   21023.20374924  .00000171  00000-0  12122-4 0  9997
2 20465  82.4878  61.8809 0015527 174.5024 185.6372 14.98125467682332
Epoch (UTC): 23 January 2021 04:53:23
Eccentricity: 0.0015527
inclination: 82.4878°
perigee height: 562 km
apogee height: 583 km
right ascension of ascending node: 61.8809°
argument of perigee: 174.5024°
revolutions per day: 14.98125467
mean anomaly at epoch: 185.6372°
orbit number at epoch: 68233

The dashed part of the orbit path shows where the satellite is in the earth's shadow,  

DLR